Regional Weather Roundup
Issued by NWS

Home | Current Version | Previous Version | Graphics & Text | Print | Product List | Glossary Off
Versions: 1 2 3 4 5 6 7 8 9 10 11 12 13 14 15 16 17 18 19 20 21 22 23 24 25 26 27 28 29 30 31 32 33 34 35 36 37 38 39 40 41 42 43 44 45 46 47 48 49 50

000
ASUS43 KMKX 270611
RWRWI

WISCONSIN REGIONAL WEATHER ROUNDUP
NATIONAL WEATHER SERVICE MILWAUKEE/SULLIVAN WI
100 AM CDT THU JUL 27 2017

NOTE: "FAIR" INDICATES FEW OR NO CLOUDS BELOW 12,000 FEET WITH NO
SIGNIFICANT WEATHER AND/OR OBSTRUCTIONS TO VISIBILITY.

WIZ001-002-006>008-014>016-023>028-270700-
NORTHWEST WISCONSIN

CITY           SKY/WX    TMP DP  RH WIND       PRES   REMARKS
SUPERIOR ARPT  NOT AVBL
ASHLAND        CLEAR     59  58  96 W5        30.03R
6HR MIN TEMP:  59; 6HR MAX TEMP:  79;

HAYWARD        PTCLDY    60  57  89 CALM      30.04R
6HR MIN TEMP:  59; 6HR MAX TEMP:  80;

SIREN          CLEAR     62  60  94 CALM      30.05R
6HR MIN TEMP:  62; 6HR MAX TEMP:  80;

CUMBERLAND     CLEAR     63  61  94 CALM      30.04R
RICE LAKE      CLEAR     62  61  97 CALM      30.05R
6HR MIN TEMP:  61; 6HR MAX TEMP:  79;

CHETEK         CLEAR     62  62 100 MISG      30.04R
6HR MIN TEMP:  62; 6HR MAX TEMP:  80;

LADYSMITH      CLEAR     62  61  96 CALM      30.05R
6HR MIN TEMP:  61; 6HR MAX TEMP:  79;

EAU CLAIRE     PTCLDY    64  62  93 CALM      30.01R
6HR MIN TEMP:  63; 6HR MAX TEMP:  80;

MENOMONIE      PTCLDY    65  64  94 CALM      30.03R
6HR MIN TEMP:  65; 6HR MAX TEMP:  79;

NEW RICHMOND   CLEAR     63  63  98 CALM      30.04R
6HR MIN TEMP:  63; 6HR MAX TEMP:  79;

OSCEOLA        CLEAR     62  62 100 CALM      30.06S
6HR MIN TEMP:  62; 6HR MAX TEMP:  80;

$$

WIZ003>005-009-010-017-018-270700-
NORTH CENTRAL WISCONSIN

CITY           SKY/WX    TMP DP  RH WIND       PRES   REMARKS
MANITOWISH WTR PTCLDY    53  53 100 CALM      30.04R
6HR MIN TEMP:  53; 6HR MAX TEMP:  75;

ARBOR VITAE    CLEAR     59  57  95 CALM      30.04R
6HR MIN TEMP:  59; 6HR MAX TEMP:  77;

WOODRUFF       CLEAR     59  57  95 CALM      30.04R
6HR MIN TEMP:  59; 6HR MAX TEMP:  77;

RHINELANDER    CLEAR     55  55 100 CALM      30.04S FOG
6HR MIN TEMP:  54; 6HR MAX TEMP:  79;

EAGLE RIVER    PTCLDY    54  54 100 CALM      30.03S FOG
6HR MIN TEMP:  54; 6HR MAX TEMP:  76;

LAND O LAKES   CLEAR     53  53 100 CALM      30.05S
6HR MIN TEMP:  53; 6HR MAX TEMP:  76;

PHILLIPS       PTCLDY    58  58 100 CALM      30.03S
6HR MIN TEMP:  57; 6HR MAX TEMP:  78;

TOMAHAWK       FOG       53  52  96 CALM      30.05R VSB 1
6HR MIN TEMP:  53; 6HR MAX TEMP:  77;

MEDFORD        FOG       58  58 100 CALM      30.04R VSB 1/4
6HR MIN TEMP:  57; 6HR MAX TEMP:  75;

MERRILL        FOG       57  57 100 CALM      30.04R VSB 1/4
$$

WIZ029-030-035-036-043>047-270700-
CENTRAL WISCONSIN

CITY           SKY/WX    TMP DP  RH WIND       PRES   REMARKS
WAUSAU         CLEAR     66  63  90 NW5       30.00R
6HR MIN TEMP:  65; 6HR MAX TEMP:  74;

MOSINEE        PTCLDY    64  63  94 N7        30.02S
MARSHFIELD     CLEAR     65  62  90 N5        30.01S
6HR MIN TEMP:  65; 6HR MAX TEMP:  75;

STEVENS POINT  FOG       61  61 100 CALM      30.01S VSB 1
6HR MIN TEMP:  61; 6HR MAX TEMP:  75;

WAUPACA        CLEAR     70  69  97 NW3       29.99S
6HR MIN TEMP:  70; 6HR MAX TEMP:  81;

WAUTOMA        CLEAR     66  66 100 CALM      29.99S FOG
6HR MIN TEMP:  66; 6HR MAX TEMP:  77;

WISC RAPIDS    FOG       65  65 100 CALM      30.01R VSB 3/4
6HR MIN TEMP:  64; 6HR MAX TEMP:  79;

CAMP DOUGLAS   FOG       64  64 100 W3        29.99S VSB 1/4
$$

WIZ011>013-019>022-031-037>040-048>050-270700-
NORTHEAST WISCONSIN

CITY           SKY/WX    TMP DP  RH WIND       PRES   REMARKS
ANTIGO         CLEAR     58  58  99 CALM      30.04R
6HR MIN TEMP:  58; 6HR MAX TEMP:  74;

SHAWANO        MOCLDY    71  66  85 N6        29.98S
6HR MIN TEMP:  71; 6HR MAX TEMP:  78;

OCONTO         MOCLDY    68  65  92 N3        29.97R
6HR MIN TEMP:  68; 6HR MAX TEMP:  77;

STURGEON BAY     N/A     70  68  93 NE3       29.97S
6HR MIN TEMP:  70; 6HR MAX TEMP:  76;

GREEN BAY      MOCLDY    70  70 100 CALM      29.97S
6HR MIN TEMP:  70; 6HR MAX TEMP:  77;

MANITOWOC      CLOUDY    70  67  90 NW3       29.97F
6HR MIN TEMP:  70; 6HR MAX TEMP:  74; 6HR PCP: TRACE;

APPLETON       FOG       68  68 100 W5        29.97S VSB<1/4
CLINTONVILLE   CLEAR    N/A N/A N/A N3        29.98S
OSHKOSH        MOCLDY    71  68  90 CALM      29.97F FOG
6HR MIN TEMP:  71; 6HR MAX TEMP:  77; 6HR PCP:  0.10;

$$

WIZ032>034-041-042-053>061-270700-
SOUTHWEST WISCONSIN

CITY           SKY/WX    TMP DP  RH WIND       PRES   REMARKS
LA CROSSE      CLEAR     72  70  93 NW7       29.99S
6HR MIN TEMP:  71; 6HR MAX TEMP:  83; 6HR PCP: TRACE;

SPARTA         FOG       64  64 100 CALM      30.01S VSB 1/2
6HR MIN TEMP:  64; 6HR MAX TEMP:  78;

VIROQUA        CLEAR     69  69 100 CALM      30.01F
6HR MIN TEMP:  69; 6HR MAX TEMP:  78;

BOSCOBEL       CLOUDY    71  70  96 CALM      29.98S FOG
6HR MIN TEMP:  70; 6HR MAX TEMP:  79;

PRAIRIE DU CHI CLOUDY    73  70  92 CALM      29.97F
6HR MIN TEMP:  73; 6HR MAX TEMP:  78;

PLATTEVILLE    CLOUDY    70  70 100 N3        29.98F
6HR MIN TEMP:  70; 6HR MAX TEMP:  79;

$$

WIZ056-057-062-063-064-067-068-270700-
SOUTH CENTRAL WISCONSIN

CITY           SKY/WX    TMP DP  RH WIND       PRES   REMARKS
REEDSBURG      CLOUDY    69  69 100 CALM      29.98F
6HR MIN TEMP:  69; 6HR MAX TEMP:  76; 6HR PCP:  0.05;

BARABOO/DELLS  CLOUDY    69  68  96 CALM      29.98F
6HR MIN TEMP:  69; 6HR MAX TEMP:  75;

LONE ROCK      CLOUDY    70  70 100 CALM      29.97F FOG
6HR MIN TEMP:  68; 6HR MAX TEMP:  76;

MINERAL POINT  FOG       72  72 100 N7        29.98F VSB 1/2
MADISON        FOG       69  69 100 CALM      29.96F VSB 1/2
6HR MIN TEMP:  69; 6HR MAX TEMP:  74;

MIDDLETON      CLOUDY    69  69 100 NW3       29.98F VSB 1/2
6HR MIN TEMP:  69; 6HR MAX TEMP:  74;

WATERTOWN      CLOUDY    70  70 100 N3        29.97S
6HR MIN TEMP:  70; 6HR MAX TEMP:  72;

MONROE         CLOUDY    70  70 100 N6        29.97S FOG
JANESVILLE     CLOUDY    72  72 100 CALM      29.94F FOG
$$

WIZ051-052-058>065-066-070>072-270700-
SOUTHEAST WISCONSIN

CITY           SKY/WX    TMP DP  RH WIND       PRES   REMARKS
MILWAUKEE      CLOUDY    74  71  91 NW5       29.94F
6HR MIN TEMP:  73; 6HR MAX TEMP:  76; 6HR PCP:  0.02;

WAUKESHA       CLOUDY    68  68 100 NW5       29.96F
MILWAUKEE/TIMM CLOUDY    70  66  88 CALM      29.95F FOG
RACINE         CLOUDY    74  70  87 CALM      29.95F
6HR MIN TEMP:  73; 6HR MAX TEMP:  77;

KENOSHA        CLOUDY    73  71  93 SW5       29.93F
6HR MIN TEMP:  72; 6HR MAX TEMP:  79; 6HR PCP:  0.02;

FOND DU LAC    CLOUDY    69  67  93 CALM      29.97F FOG
6HR MIN TEMP:  69; 6HR MAX TEMP:  74; 6HR PCP:  0.01;

SHEBOYGAN      CLOUDY    70  70 100 N5        29.96F FOG
6HR MIN TEMP:  70; 6HR MAX TEMP:  73; 6HR PCP:  0.02;

WEST BEND      HVY RAIN  70  70 100 NW5       29.97F
JUNEAU         CLOUDY    70  69  98 CALM      29.98F FOG
6HR MIN TEMP:  70; 6HR MAX TEMP:  72;

$$

LSZ147-162-270700-
LAKE SUPERIOR

STATION/POSITION TIME  TEMP    WIND        PRES    WAVE
                       AIR SEA DIR/SP/G            HT/PER
                 (UTC) (F)     (DEG/KT/KT) (MB)    (FT/S)
W MID LAKE BUOY  0550   59 52  320/  8/ 10 1015.7R   1
DEVILS ISLAND    0600   71     340/ 12/ 12 1016.1R
SAXON HARBOR     0540   62     190/  3/  4 1015.9R
$$

LMZ867-665-643>646-270700-
LAKE MICHIGAN

STATION/POSITION TIME  TEMP    WIND        PRES    WAVE
                       AIR SEA DIR/SP/G            HT/PER
                 (UTC) (F)     (DEG/KT/KT) (MB)    (FT/S)
CHAMBERS ISLAND  0540   72      50/  5/  7 1014.2R
S GREEN BAY BUOY 0600   72 71  360/  6/  6 1014.3
N MID LAKE BUOY  0550   67 65  220/  2/  4 1015.3R   2/ 5
NORTHPORT PIER   0540   67        CALM     1014.9R
KEWAUNEE LAKESHO 0548   72     270/  4/



USA.gov is the U.S. government's official web portal to all federal, state and local government web resources and services.